Camp Pendleton, CA

10:46 PM PDT on September 28, 2016 (GMT -0700)
Camp Pendleton Marine Corps Air Station

Weather History for KNFG - April, 2013

Change the Weather History Date:

Sunday, April 28, 2013

  Actual Average Record
Temperature  
Mean Temperature 66 °F -  
Max Temperature 73 °F 68 °F 93 °F (2008)
Min Temperature 59 °F 46 °F 33 °F (2007)
Growing Degree Days 16 (Base 50)    
Moisture  
Dew Point 54 °F    
Average Humidity 72    
Maximum Humidity 81    
Minimum Humidity 57    
Precipitation  
Precipitation 0.00 in - - ()
Sea Level Pressure  
Sea Level Pressure 29.95 in    
Wind  
Wind Speed 3 mph (SSW)    
Max Wind Speed 10 mph    
Max Gust Speed 16 mph    
Visibility 8 miles    
Events      
Averages and records for this station are not official NWS values.
T = Trace of Precipitation, MM = Missing Value Source: NWS Daily Summary

Daily Weather History Graph

Daily Weather History Graph

Search for Another Location

Airport or City:

Trip Planner

Search our weather history database for the weather conditions in past years. The results will help you decide how hot, cold, wet, or windy it might be!

Date:

Astronomy

Apr. 28, 2013 Rise Set
Actual Time 6:04 AM PDT 7:30 PM PDT
Civil Twilight 5:37 AM PDT 7:56 PM PDT
Nautical Twilight 5:06 AM PDT 8:27 PM PDT
Astronomical Twilight 4:33 AM PDT 9:00 PM PDT
Moon 10:59 PM PDT (4/28) 8:30 AM PDT (4/28)
Length of Visible Light 14h 18m
Length of Day
13h 25m
Waning Gibbous, 88% of the Moon is Illuminated
Apr 28
Waning Gibbous
May 2
Last Quarter
May 9
New
May 17
First Quarter
May 24
Full

Hourly Weather History & Observations

Time (PDT) Temp. Dew Point Humidity Pressure Visibility Wind Dir Wind Speed Gust Speed Precip Events Conditions
12:54 AM 62.1 °F 54.0 °F 75% 30.03 in 9.0 mi Calm Calm - N/A   Overcast
1:54 AM 61.0 °F 54.0 °F 78% 30.02 in 8.0 mi SE 4.6 mph - N/A   Overcast
2:54 AM 61.0 °F 54.0 °F 78% 30.01 in 7.0 mi South 3.5 mph - N/A   Overcast
3:54 AM 61.0 °F 54.0 °F 78% 30.00 in 7.0 mi Calm Calm - N/A   Overcast
4:54 AM 60.1 °F 54.0 °F 80% 29.99 in 6.0 mi Calm Calm - N/A   Haze
6:54 AM 60.1 °F 54.0 °F 80% 29.99 in 5.0 mi NE 3.5 mph - N/A   Haze
7:54 AM 60.1 °F 54.0 °F 80% 30.00 in 5.0 mi Calm Calm - N/A   Haze
8:54 AM 60.1 °F 54.0 °F 80% 29.99 in 6.0 mi Calm Calm - N/A   Haze
9:54 AM 63.0 °F 54.0 °F 72% 29.99 in 7.0 mi Variable 3.5 mph - N/A   Overcast
10:18 AM 66.2 °F 55.4 °F 68% 29.99 in 9.0 mi Calm Calm - N/A   Overcast
10:45 AM 68.0 °F 55.4 °F 64% 29.98 in 10.0 mi Calm Calm - N/A   Scattered Clouds
10:54 AM 69.1 °F 55.0 °F 61% 29.97 in 10.0 mi South 3.5 mph - N/A   Partly Cloudy
11:54 AM 70.0 °F 55.0 °F 59% 29.96 in 10.0 mi South 10.4 mph - N/A   Clear
12:54 PM 72.0 °F 55.9 °F 57% 29.94 in 10.0 mi SSW 8.1 mph - N/A   Clear
1:54 PM 71.1 °F 55.0 °F 57% 29.92 in 10.0 mi SSW 10.4 mph 16.1 mph N/A   Clear
2:54 PM 70.0 °F 55.0 °F 59% 29.91 in 10.0 mi SW 8.1 mph 16.1 mph N/A   Clear
3:54 PM 66.9 °F 54.0 °F 63% 29.90 in 10.0 mi SSW 10.4 mph - N/A   Clear
4:54 PM 66.0 °F 54.0 °F 65% 29.89 in 10.0 mi SSW 8.1 mph - N/A   Clear
5:54 PM 63.0 °F 54.0 °F 72% 29.88 in 10.0 mi SSW 8.1 mph - N/A   Clear
6:54 PM 61.0 °F 54.0 °F 78% 29.88 in 9.0 mi SSW 3.5 mph - N/A   Clear
7:27 PM 60.8 °F 53.6 °F 77% 29.89 in 8.0 mi SW 3.5 mph - N/A   Partly Cloudy
7:54 PM 59.0 °F 53.1 °F 81% 29.89 in 9.0 mi Calm Calm - N/A   Mostly Cloudy
8:54 PM 60.1 °F 54.0 °F 80% 29.90 in 9.0 mi WSW 3.5 mph - N/A   Overcast
9:54 PM 59.0 °F 53.1 °F 81% 29.91 in 9.0 mi Calm Calm - N/A   Overcast
10:54 PM 59.0 °F 53.1 °F 81% 29.92 in 9.0 mi South 3.5 mph - N/A   Overcast
11:54 PM 59.0 °F 53.1 °F 81% 29.92 in 8.0 mi South 5.8 mph - N/A   Overcast